User: anonymous   Login
Location: Fort Wayne
(41.1310°N, 85.1290°W)
Time: 06:10:00
(UTC-04:00)
Language:

Cosmos 2082 - Orbit

View from above orbital plane
View from above orbital plane
View from above satellite
View from above satellite

Ground track
Ground track

The orbit data is extracted from the following two-line orbital elements,

1 20624U 90046A   15210.47376135  .00000248  00000-0  15449-3 0  9998
2 20624 071.0391 216.0139 0015352 349.8307 010.2503 14.14168002299827
Epoch (UTC): 29 July 2015 11:22:12
Eccentricity: 0.0015352
inclination: 71.0391°
perigee height: 834 km
apogee height: 856 km
right ascension of ascending node: 216.0139°
argument of perigee: 349.8307°
revolutions per day: 14.14168002
mean anomaly at epoch: 10.2503°
orbit number at epoch: 29982

The dashed part of the orbit path shows where the satellite is in the earth's shadow,  

DLR